Date String (YYYY-MM-DD hh:mm:ss) UTC,Instrument flags,Ambient pressure (hPa),Sample flow (lpm),Bypass flow (lpm),Sample temperature (°C),Ambient temperature (°C),ASC tube jacket temperature (°C),LED temperature (°C),Box temperature (°C),Sample RH (%),Span deviation,Mass concentration (μg/m³),Mass concentration (μg/m³),Mass concentration (μg/m³)
DateTimeUTC,F1_M11,P_M11,Q1_M11,Q2_M11,T1_M11,T2_M11,T3_M11,T4_M11,T5_M11,U1_M11,ZSPAN_M11,X2_M11,X0_M11,X1_M11
2021-12-10 02:00:00,,0813.2,5.00,0.00,25.9,25.0,00.0,35.0,27.7,12.2,0000.0,0005.45,0016.60,0003.87
2021-12-10 02:01:00,,0813.1,5.02,0.00,25.9,25.0,00.0,34.9,27.7,12.2,0000.0,0005.53,0016.71,0003.84
2021-12-10 02:02:00,,0813.2,4.99,0.00,25.9,25.0,00.0,34.9,27.7,12.2,0000.0,0005.49,0016.70,0003.82
2021-12-10 02:03:00,,0813.0,5.01,0.00,25.9,25.0,00.0,34.9,27.7,12.2,0000.0,0005.41,0016.76,0003.81
2021-12-10 02:04:00,,0813.1,5.00,0.00,25.9,25.0,00.0,34.9,27.6,12.2,0000.0,0005.42,0017.25,0003.80
2021-12-10 02:05:00,,0812.8,4.99,0.00,25.9,25.0,00.0,34.9,27.6,12.2,0000.0,0005.44,0017.85,0003.78
2021-12-10 02:06:00,,0812.9,5.01,0.00,25.9,25.0,00.0,34.9,27.6,12.2,0000.0,0005.46,0018.45,0003.75
2021-12-10 02:07:00,,0812.9,4.99,0.00,25.9,25.0,00.0,34.9,27.7,12.2,0000.0,0005.47,0018.52,0003.74
2021-12-10 02:08:00,,0812.9,5.02,0.00,25.9,25.0,00.0,34.9,27.7,12.2,0000.0,0005.51,0019.64,0003.72
2021-12-10 02:09:00,,0812.8,4.98,0.00,25.9,25.0,00.0,34.9,27.7,12.2,0000.0,0005.48,0021.08,0003.72
2021-12-10 02:10:00,,0812.8,5.02,0.00,25.9,25.0,00.0,34.9,27.7,12.2,0000.0,0005.45,0020.29,0003.72
2021-12-10 02:11:00,,0812.8,5.00,0.00,25.9,25.0,00.0,34.9,27.6,12.3,0000.0,0005.43,0020.15,0003.73
2021-12-10 02:12:00,,0812.8,5.00,0.00,25.9,25.0,00.0,34.9,27.6,12.3,0000.0,0005.32,0020.17,0003.72
2021-12-10 02:13:00,,0812.8,4.99,0.00,25.9,25.0,00.0,34.9,27.6,12.4,0000.0,0005.30,0020.46,0003.72
2021-12-10 02:14:00,,0812.8,5.01,0.00,25.9,25.0,00.0,34.9,27.6,12.5,0000.0,0005.30,0020.42,0003.70
2021-12-10 02:15:00,,0812.8,5.01,0.00,25.9,25.0,00.0,34.9,27.6,12.7,0000.0,0005.26,0019.56,0003.68
2021-12-10 02:16:00,,0812.8,5.00,0.00,25.9,25.0,00.0,34.9,27.6,12.7,0000.0,0005.23,0019.55,0003.67
2021-12-10 02:17:00,,0812.7,5.00,0.00,25.9,25.0,00.0,34.9,27.6,12.7,0000.0,0005.20,0019.58,0003.66
2021-12-10 02:18:00,,0812.7,4.99,0.00,25.9,25.0,00.0,34.9,27.6,12.7,0000.0,0005.19,0019.00,0003.65
2021-12-10 02:19:00,,0812.7,5.01,0.00,25.8,25.0,00.0,34.9,27.6,12.7,0000.0,0005.16,0018.76,0003.63
2021-12-10 02:20:00,,0812.7,5.00,0.00,25.8,25.0,00.0,34.9,27.6,12.7,0000.0,0005.23,0017.21,0003.62
2021-12-10 02:21:00,,0812.7,5.00,0.00,25.8,25.0,00.0,34.9,27.6,12.9,0000.0,0005.19,0016.89,0003.60
2021-12-10 02:22:00,,0812.7,5.00,0.00,25.9,25.0,00.0,34.9,27.6,12.9,0000.0,0005.14,0016.69,0003.58
2021-12-10 02:23:00,,0812.7,4.99,0.00,25.8,25.0,00.0,34.9,27.6,12.8,0000.0,0005.17,0016.89,0003.57
2021-12-10 02:24:00,,0812.6,5.01,0.00,25.8,25.0,00.0,34.9,27.6,12.8,0000.0,0005.19,0016.70,0003.55
2021-12-10 02:25:00,,0812.6,4.98,0.00,25.8,25.0,00.0,34.9,27.6,12.8,0000.0,0005.24,0016.51,0003.54
2021-12-10 02:26:00,,0812.6,5.01,0.00,25.8,25.0,00.0,34.8,27.6,12.8,0000.0,0005.22,0018.00,0003.54
2021-12-10 02:27:00,,0812.6,5.00,0.00,25.8,24.9,00.0,34.8,27.6,12.9,0000.0,0005.21,0018.46,0003.53
2021-12-10 02:28:00,,0812.6,4.99,0.00,25.8,24.9,00.0,34.8,27.6,12.9,0000.0,0005.22,0018.53,0003.53
2021-12-10 02:29:00,,0812.6,5.01,0.00,25.8,24.9,00.0,34.8,27.5,12.9,0000.0,0005.18,0019.29,0003.51
2021-12-10 02:30:00,,0812.6,4.99,0.00,25.8,24.9,00.0,34.8,27.6,12.9,0000.0,0005.11,0018.69,0003.49
2021-12-10 02:31:00,,0812.6,5.00,0.00,25.8,24.9,00.0,34.8,27.6,12.9,0000.0,0005.12,0019.25,0003.49
2021-12-10 02:32:00,,0812.6,5.01,0.00,25.8,24.9,00.0,34.8,27.6,12.8,0000.0,0005.16,0019.36,0003.48
2021-12-10 02:33:00,,0812.6,5.02,0.00,25.8,24.9,00.0,34.8,27.6,12.7,0000.0,0005.13,0019.43,0003.49
2021-12-10 02:34:00,,0812.6,4.99,0.00,25.8,24.9,00.0,34.8,27.6,12.7,0000.0,0005.15,0019.11,0003.48
2021-12-10 02:35:00,,0812.6,5.01,0.00,25.8,24.9,00.0,34.8,27.5,12.7,0000.0,0005.17,0018.58,0003.49
2021-12-10 02:36:00,,0812.5,5.00,0.00,25.8,24.9,00.0,34.8,27.6,12.7,0000.0,0005.15,0021.42,0003.50
2021-12-10 02:37:00,,0812.5,4.99,0.00,25.8,24.9,00.0,34.8,27.6,12.9,0000.0,0005.10,0021.42,0003.49
2021-12-10 02:38:00,,0812.5,5.00,0.00,25.8,24.9,00.0,34.8,27.5,12.8,0000.0,0005.04,0020.91,0003.47
2021-12-10 02:39:00,,0812.5,5.00,0.00,25.8,24.9,00.0,34.8,27.5,12.8,0000.0,0005.01,0020.96,0003.47
2021-12-10 02:40:00,,0812.5,5.00,0.00,25.8,24.9,00.0,34.8,27.5,12.6,0000.0,0005.00,0020.07,0003.46
2021-12-10 02:41:00,,0812.4,5.01,0.00,25.8,24.9,00.0,34.8,27.5,12.8,0000.0,0005.01,0020.62,0003.43
2021-12-10 02:42:00,,0812.4,5.01,0.00,25.8,24.9,00.0,34.8,27.5,12.9,0000.0,0004.93,0019.72,0003.42
2021-12-10 02:43:00,,0812.4,5.00,0.00,25.8,24.9,00.0,34.8,27.5,12.8,0000.0,0004.82,0019.43,0003.39
2021-12-10 02:44:00,,0812.4,5.01,0.00,25.8,24.9,00.0,34.8,27.5,12.8,0000.0,0004.80,0019.74,0003.37
2021-12-10 02:45:00,,0812.4,5.01,0.00,25.8,24.9,00.0,34.8,27.5,12.9,0000.0,0004.76,0019.26,0003.35
2021-12-10 02:46:00,,0812.4,5.00,0.00,25.8,24.9,00.0,34.8,27.5,12.9,0000.0,0004.70,0019.34,0003.32
2021-12-10 02:47:00,,0812.4,5.00,0.00,25.8,24.9,00.0,34.8,27.5,13.0,0000.0,0004.69,0017.08,0003.30
2021-12-10 02:48:00,,0812.3,5.01,0.00,25.7,24.8,00.0,34.8,27.5,13.0,0000.0,0004.66,0015.37,0003.27
2021-12-10 02:49:00,,0812.3,4.99,0.00,25.7,24.8,00.0,34.8,27.5,13.0,0000.0,0004.65,0015.43,0003.27
2021-12-10 02:50:00,,0812.3,5.00,0.00,25.7,24.8,00.0,34.8,27.5,13.0,0000.0,0004.66,0014.50,0003.26
2021-12-10 02:51:00,,0812.3,5.01,0.00,25.7,24.8,00.0,34.8,27.5,13.0,0000.0,0004.64,0014.24,0003.26
2021-12-10 02:52:00,,0812.3,4.99,0.00,25.7,24.8,00.0,34.8,27.5,13.1,0000.0,0004.75,0014.69,0003.28
2021-12-10 02:53:00,,0812.3,4.99,0.00,25.7,24.8,00.0,34.7,27.5,13.1,0000.0,0004.78,0016.47,0003.29
2021-12-10 02:54:00,,0812.3,5.00,0.00,25.7,24.8,00.0,34.7,27.5,13.1,0000.0,0004.84,0017.33,0003.30
2021-12-10 02:55:00,,0812.3,4.99,0.00,25.7,24.8,00.0,34.7,27.5,13.1,0000.0,0004.88,0017.19,0003.31
2021-12-10 02:56:00,,0812.3,5.00,0.00,25.7,24.8,00.0,34.7,27.5,13.1,0000.0,0004.87,0018.39,0003.33
2021-12-10 02:57:00,,0812.3,5.01,0.00,25.7,24.8,00.0,34.7,27.4,12.9,0000.0,0004.89,0019.23,0003.33
2021-12-10 02:58:00,,0812.3,4.99,0.00,25.7,24.8,00.0,34.7,27.4,13.0,0000.0,0004.88,0019.22,0003.33
2021-12-10 02:59:00,,0812.2,5.00,0.00,25.7,24.8,00.0,34.7,27.4,12.9,0000.0,0004.89,0019.49,0003.32
